This is the latest recevied weather packets stored in our database for station/object W3TMB. If no packets are shown the sender has not sent any weather packets the latest 10 day(s).
| Time | Temp. | Humidity | Pressure | Rain* | Wind** | Luminosity | Snow |
|---|---|---|---|---|---|---|---|
| 1778079693 | 14.44° C | 99% | 1004.1 hPa | 0 mm | - | 29 W/m² | - |
| 1778079390 | 14.44° C | 99% | 1004.3 hPa | 0 mm | - | 61 W/m² | - |
| 1778079086 | 14.44° C | 99% | 1004.3 hPa | 1.27 mm | - | 35 W/m² | - |
| 1778078784 | 14.44° C | 99% | 1004.3 hPa | 1.27 mm | - | 41 W/m² | - |
| 1778078480 | 14.44° C | 99% | 1004.1 hPa | 0 mm | - | 48 W/m² | - |
| 1778078178 | 14.44° C | 99% | 1004.1 hPa | 1.78 mm | - | 39 W/m² | - |
| 1778077876 | 13.89° C | 99% | 1004.1 hPa | 0 mm | - | 61 W/m² | - |
| 1778077574 | 13.89° C | 99% | 1004.4 hPa | 1.27 mm | - | 48 W/m² | - |
| 1778077272 | 14.44° C | 99% | 1004.1 hPa | 1.27 mm | - | 53 W/m² | - |
| 1778076969 | 14.44° C | 99% | 1004 hPa | 0 mm | - | 61 W/m² | - |
| 1778076667 | 13.89° C | 99% | 1003.9 hPa | 0 mm | - | 43 W/m² | - |
| 1778076365 | 13.89° C | 99% | 1004.1 hPa | 0 mm | - | 45 W/m² | - |
| 1778076062 | 13.89° C | 99% | 1004.2 hPa | 1.78 mm | - | 45 W/m² | - |
| 1778075758 | 13.89° C | 99% | 1004 hPa | 1.78 mm | - | 43 W/m² | - |
| 1778075454 | 13.89° C | 99% | 1004.2 hPa | 1.27 mm | - | 41 W/m² | - |
| 1778075151 | 13.89° C | 99% | 1004.3 hPa | 3.05 mm | - | 40 W/m² | - |
| 1778074847 | 13.89° C | 99% | 1004.4 hPa | 3.05 mm | - | 35 W/m² | - |
| 1778074544 | 14.44° C | 99% | 1004.6 hPa | 6.1 mm | - | 50 W/m² | - |
| 1778074241 | 14.44° C | 99% | 1004.3 hPa | 6.1 mm | - | 41 W/m² | - |
| 1778073939 | 14.44° C | 99% | 1004.6 hPa | 3.05 mm | - | 56 W/m² | - |
| 1778073636 | 14.44° C | 99% | 1004.3 hPa | 0 mm | - | 59 W/m² | - |
| 1778073333 | 14.44° C | 99% | 1004.4 hPa | 0 mm | - | 57 W/m² | - |
| 1778073029 | 14.44° C | 99% | 1004.3 hPa | 0 mm | - | 62 W/m² | - |
| 1778072726 | 14.44° C | 99% | 1004.1 hPa | 0 mm | - | 49 W/m² | - |
| 1778072424 | 14.44° C | 99% | 1004.1 hPa | 0 mm | - | 50 W/m² | - |
* Rain latest hour (hover to see other rain measurements)
** Current wind speed in m/s (hover to see current wind gust speed)